Theta_e
349 352 360 357 355 356 358 359 360 360 360 360 361 359 357 356 357 358 358 357 357 358 358 359 359 358 360 362 362 361 362 361 361 361 361 361 360 360 359 357 361 353 358
350 353 360 359 359 360 359 360 360 360 361 360 361 360 360 359 357 356 359 360 360 360 359 360 360 360 357 358 360 361 361 361 362 362 362 362 360 360 361 361 364 357 359
347 354 357 361 360 360 360 361 361 361 361 361 361 360 360 360 361 361 361 361 360 359 359 359 359 360 361 361 360 360 360 360 361 359 362 354 357 360 361 359 358 358 359
349 350 354 361 361 360 361 361 361 361 361 361 362 361 361 360 360 359 360 360 360 359 359 358 358 358 359 359 360 361 359 359 359 359 353 349 354 359 359 359 359 357 357
349 354 361 361 361 361 362 361 361 360 361 361 361 361 361 360 359 360 360 360 360 360 360 359 358 357 355 359 360 361 360 359 360 361 356 355 355 359 360 358 359 358 359
349 353 361 362 362 362 361 362 361 361 361 360 362 361 362 361 362 361 360 358 357 360 361 360 358 357 359 360 360 359 357 360 361 356 353 357 358 360 357 356 357 358 359
348 352 358 362 362 362 362 362 361 362 362 362 362 362 361 361 361 361 359 358 360 362 362 361 359 361 362 360 360 358 358 360 353 355 352 352 354 356 355 355 355 354 356
350 351 356 362 362 362 361 362 361 360 362 361 361 362 361 361 360 362 360 360 361 361 362 362 361 358 359 359 358 356 358 359 353 350 350 349 356 354 354 353 353 353 353
352 352 355 357 362 361 361 362 361 361 361 361 361 361 362 361 360 361 361 360 360 360 361 361 361 360 357 357 357 352 352 357 348 349 347 348 356 354 354 354 354 354 353
352 353 355 359 354 355 360 361 362 361 361 362 361 359 361 361 359 359 363 360 360 359 359 358 360 361 357 356 355 351 353 357 350 348 347 351 356 354 354 354 354 355 355
347 351 352 352 356 357 358 360 361 361 360 359 358 359 360 356 358 359 363 360 358 358 357 358 358 362 359 358 356 354 354 347 347 346 348 355 354 353 353 354 354 356 357
343 346 350 349 351 355 351 358 357 359 354 354 357 358 356 358 360 355 360 361 360 360 360 361 362 362 361 355 356 359 351 347 348 348 349 354 353 353 353 354 355 357 359
344 343 344 354 358 355 358 354 352 349 352 357 361 363 358 356 356 352 354 357 359 362 358 360 360 360 354 351 347 345 346 348 347 348 349 353 353 354 355 356 357 360 361
342 343 347 352 361 359 353 354 352 347 349 354 357 361 359 355 355 358 352 352 362 353 357 355 354 357 351 349 346 345 346 347 347 349 350 353 352 353 355 357 360 361 362
342 344 347 351 358 358 359 355 354 347 351 350 354 359 356 353 357 361 360 357 357 355 353 353 353 352 349 348 348 348 347 349 348 349 350 355 354 354 355 357 360 362 362
343 345 348 350 359 356 361 357 352 350 353 357 352 355 361 356 358 355 354 356 359 354 354 353 354 352 352 350 350 350 350 351 354 354 353 354 358 356 357 358 359 360 361
344 346 347 349 353 355 355 354 357 349 353 353 352 359 360 360 361 365 355 362 357 357 360 357 356 354 350 351 352 351 351 354 354 356 356 356 356 360 361 359 357 358 361
345 347 349 347 350 353 354 356 355 355 355 359 352 354 360 361 362 365 362 355 358 358 353 351 350 349 349 349 350 350 352 353 355 357 355 357 357 357 361 363 360 358 363
348 348 348 349 349 351 356 357 360 359 355 359 358 355 361 359 362 365 355 359 371 357 352 350 349 351 353 348 350 351 354 352 353 352 356 358 358 357 358 364 366 364 364
347 350 350 349 353 355 356 363 357 351 360 356 356 355 360 359 361 366 359 364 365 356 353 352 357 356 353 352 345 348 352 353 354 355 355 355 357 357 358 364 364 361 365
347 349 354 355 357 354 352 350 350 347 356 359 357 360 361 360 361 365 358 362 363 363 364 362 357 360 350 356 347 346 348 352 354 353 357 355 355 355 359 360 358 356 356
348 350 354 355 357 356 352 360 356 356 350 354 358 360 360 359 360 361 365 362 357 361 366 362 365 354 351 355 354 346 341 345 348 350 356 354 355 354 353 354 356 357 360
345 349 352 355 357 357 363 357 359 359 357 351 357 355 357 358 358 362 361 366 368 361 359 366 365 363 352 354 360 351 343 333 338 342 354 354 357 352 353 354 354 356 361
345 348 353 356 357 356 362 358 359 350 349 350 352 356 357 359 359 359 361 361 366 363 369 363 361 365 366 354 353 351 354 353 342 339 351 352 352 350 355 353 355 358 363
346 346 350 357 358 359 359 359 355 356 353 350 354 361 365 363 361 358 361 362 361 358 365 367 367 369 362 359 350 352 359 351 353 344 339 342 347 349 353 354 355 351 354
346 346 349 354 357 358 357 357 360 360 350 349 355 353 351 355 356 361 359 363 363 363 362 363 366 365 367 365 360 358 350 347 345 345 342 346 345 349 351 354 351 351 351
Wind_Speed
17 10 11 11 11 11 10 12 13 13 14 14 14 15 15 13 14 13 13 13 11 11 11 11 9 12 12 13 13 13 14 13 13 15 15 14 13 11 10 6 10 14 11
19 13 12 12 12 14 10 12 12 14 14 14 14 14 13 14 15 14 13 13 12 12 12 11 11 11 13 12 13 12 12 12 12 15 17 16 12 12 13 17 18 13 12
18 16 14 13 13 14 13 13 13 14 14 14 14 14 14 14 15 15 14 14 13 14 14 13 12 11 14 13 12 11 10 9 10 13 13 12 13 14 13 14 12 12 12
13 16 16 12 13 14 14 14 14 14 14 15 13 13 14 14 16 16 17 16 16 16 17 18 18 16 11 11 12 11 8 4 7 5 2 12 13 11 12 11 11 9 12
13 18 15 13 14 14 14 13 15 13 14 13 13 14 15 16 17 17 18 18 18 17 19 19 19 17 7 9 11 10 6 5 6 9 13 11 11 11 10 9 11 12 13
17 18 15 13 14 15 14 14 14 14 13 13 13 13 15 15 16 17 17 17 16 15 17 17 15 13 11 11 10 6 1 6 7 10 11 13 13 11 11 12 10 10 9
16 17 15 13 14 15 15 14 14 13 13 14 13 13 14 15 15 16 15 14 16 16 16 15 15 12 13 11 9 3 4 9 13 9 11 12 10 10 10 10 9 8 8
10 18 16 13 13 14 14 14 14 13 13 14 13 14 14 13 14 14 14 13 15 15 14 14 13 11 10 9 7 2 8 12 10 11 12 10 8 10 9 9 9 8 8
7 16 14 14 14 13 12 14 13 13 13 13 13 13 13 13 13 13 12 11 12 13 13 11 9 9 9 8 6 1 5 8 8 6 12 9 7 9 9 8 8 7 6
17 10 9 14 13 13 12 13 14 14 13 13 11 12 14 13 13 13 11 9 9 9 10 8 7 9 8 8 6 3 7 10 10 11 10 7 7 8 8 6 5 5 5
13 16 16 10 5 12 12 11 13 14 14 11 10 10 11 11 13 11 11 8 7 8 7 6 6 10 10 8 7 10 10 3 7 9 8 6 6 6 5 4 4 4 4
9 9 14 12 10 11 12 7 9 11 9 7 7 7 8 7 6 11 9 9 9 10 10 10 10 12 15 9 8 11 6 7 6 9 7 6 4 4 4 4 4 5 5
8 6 7 16 2 3 12 6 6 7 7 7 3 5 9 7 9 9 7 8 9 14 8 10 9 10 8 2 5 7 7 8 7 7 8 6 3 2 2 3 4 5 6
7 6 11 11 3 8 7 8 4 7 8 7 7 7 6 3 2 3 5 4 4 6 3 5 5 6 5 4 7 8 7 7 7 7 8 6 3 1 2 4 5 6 7
10 9 10 9 6 3 8 5 5 6 5 9 6 4 3 8 4 3 2 4 5 4 7 6 6 5 7 8 6 7 8 7 7 8 6 9 6 4 4 5 6 6 7
11 13 10 11 12 6 4 3 5 4 7 2 7 5 5 3 3 9 5 5 5 3 8 7 5 6 7 8 7 6 7 6 5 4 8 7 10 9 7 5 4 5 6
10 13 12 11 11 9 9 6 5 7 8 5 8 4 4 3 2 8 8 5 6 5 4 5 4 4 6 7 6 7 6 7 7 4 2 2 9 13 11 8 4 4 6
11 12 11 10 12 9 9 9 3 3 5 3 6 8 5 4 2 5 3 4 3 3 5 4 4 5 5 6 5 5 4 6 6 5 3 4 4 5 10 10 7 1 5
12 11 11 10 12 10 9 3 4 5 3 2 1 5 6 4 0 3 1 5 7 5 5 4 3 4 0 6 6 5 3 4 6 5 5 3 2 4 3 9 8 5 4
12 12 10 10 11 10 9 5 3 7 3 5 2 7 6 5 2 6 3 5 7 4 6 5 1 3 2 4 6 4 3 3 2 1 3 5 7 5 9 6 4 6 7
12 10 8 5 11 8 8 8 6 7 4 4 5 7 4 4 3 4 3 6 14 7 9 5 5 5 4 2 3 5 5 4 5 3 1 2 4 4 3 4 5 6 2
12 10 10 10 9 9 7 3 2 2 7 2 6 6 5 5 3 3 8 5 8 9 6 2 4 3 1 1 6 2 6 8 8 5 2 2 5 4 6 7 3 3 5
16 13 13 13 13 11 5 4 3 4 3 4 7 7 6 5 5 2 4 8 6 3 10 1 2 3 1 1 4 5 7 7 10 18 5 6 2 6 7 5 8 5 3
12 9 15 13 12 11 10 6 6 6 5 5 7 5 9 5 4 4 2 2 9 7 10 3 4 8 5 3 2 2 4 5 9 3 5 8 4 4 6 5 4 7 4
15 12 15 14 12 11 10 7 10 11 4 5 3 7 3 6 5 4 4 2 2 6 5 6 5 6 7 8 5 3 1 3 0 4 7 9 7 4 4 3 4 7 6
16 12 14 15 13 12 11 8 10 9 6 6 5 7 7 8 7 5 6 3 3 4 1 2 2 1 6 7 8 6 6 7 8 8 8 2 3 5 2 2 3 4 6
Wind_Direction
105 110 107 114 118 100 96 90 87 93 93 90 91 89 93 95 99 100 100 98 102 99 104 110 119 116 108 107 102 100 93 98 105 105 97 90 88 79 69 79 138 91 82
115 111 113 118 118 107 95 95 99 95 92 92 91 93 97 98 99 101 101 104 101 103 100 98 109 116 111 109 109 106 111 121 122 114 111 93 85 75 69 60 55 82 82
111 130 119 119 118 120 123 113 99 96 91 91 90 93 94 97 98 102 101 96 95 93 84 80 93 103 107 107 109 109 116 133 129 139 156 110 88 78 76 79 84 87 83
133 119 110 112 113 114 115 102 101 93 89 91 94 91 95 94 92 95 95 95 94 90 87 81 76 78 82 103 104 114 120 159 175 121 133 106 91 83 89 91 84 95 101
89 92 106 115 115 110 102 104 97 94 93 90 91 89 87 95 95 96 92 89 86 86 89 84 84 77 72 101 111 116 157 191 268 185 61 59 84 79 77 86 101 77 56
93 100 112 113 108 112 107 105 101 99 95 87 92 94 94 97 93 92 92 88 87 88 94 97 103 116 121 103 100 102 45 280 274 46 92 75 67 72 69 67 69 74 76
122 121 114 112 111 109 108 106 101 98 91 95 91 87 91 91 95 94 94 97 90 88 93 97 91 95 92 97 95 73 291 297 92 143 94 76 81 78 78 75 75 76 72
122 109 118 115 113 109 109 104 97 93 92 95 92 92 89 90 96 98 98 96 93 96 100 89 89 96 105 105 100 11 331 332 73 71 75 83 79 81 79 76 72 68 64
89 106 129 123 112 109 106 103 102 104 98 97 92 98 97 99 99 98 97 95 89 83 89 92 98 112 111 106 111 51 310 319 98 121 113 96 85 83 78 72 66 63 59
112 99 100 125 136 138 117 104 104 102 103 96 116 123 126 116 116 120 124 99 95 94 93 93 106 134 120 127 133 202 250 267 121 102 81 82 84 79 74 72 69 56 41
137 135 128 154 163 106 111 118 120 127 125 133 151 160 181 125 130 149 84 122 117 112 119 141 150 153 148 152 178 215 238 113 85 87 94 82 85 84 83 69 49 31 11
113 137 139 137 139 141 118 131 135 153 111 98 84 96 88 82 68 106 124 153 165 168 173 188 195 182 191 156 177 215 208 116 97 92 95 111 94 79 62 42 21 359 341
156 125 144 100 325 18 93 179 152 120 133 104 53 85 124 148 156 167 158 181 185 187 198 193 195 209 175 65 91 94 122 133 104 93 109 129 121 81 29 5 351 336 328
147 151 106 110 129 96 142 204 112 119 151 136 111 148 159 144 80 12 118 116 102 87 151 80 57 99 122 124 104 111 116 105 105 109 125 151 171 255 320 328 325 324 331
161 138 133 126 97 170 202 109 87 136 157 117 152 27 263 93 148 85 303 90 47 14 126 114 134 120 109 106 95 91 85 97 113 114 116 169 184 226 267 291 305 319 333
167 139 139 153 142 184 88 70 143 168 108 117 106 91 18 91 341 190 326 137 79 99 63 119 139 134 97 109 99 81 100 91 57 61 133 157 188 205 228 253 290 320 324
175 142 152 152 155 165 132 171 208 139 147 138 105 127 83 69 319 321 177 62 83 96 111 124 154 150 108 94 106 120 120 135 129 128 143 134 172 198 200 202 222 291 329
177 153 164 162 155 154 155 203 202 170 135 196 138 147 116 112 293 293 62 56 125 170 130 160 178 120 122 125 140 130 117 138 145 174 149 306 42 147 189 184 199 32 355
136 164 172 153 163 162 149 192 297 83 144 147 26 110 112 138 323 284 344 150 224 135 132 162 143 102 14 143 155 154 183 168 209 111 133 293 106 332 85 177 175 113 68
137 161 178 171 140 183 153 249 219 172 184 137 251 98 166 120 130 306 105 219 315 118 151 88 277 37 43 288 149 134 209 230 236 186 57 273 66 339 41 33 336 125 118
145 162 161 144 147 191 173 188 180 172 158 179 98 115 141 128 121 300 218 179 229 102 81 148 168 223 178 254 178 179 221 235 232 252 293 32 46 26 84 41 36 356 121
144 175 158 148 184 204 189 201 201 132 166 147 129 146 139 158 161 175 301 336 3 103 106 144 328 284 148 258 300 318 226 14 276 191 157 49 32 359 21 53 16 50 344
151 179 175 165 183 199 236 175 104 350 122 174 131 170 173 173 173 89 294 348 301 41 125 175 11 337 279 96 330 323 355 189 216 325 233 99 42 7 13 358 51 53 358
156 187 162 178 177 196 227 158 173 207 197 193 177 161 147 178 186 173 160 333 316 355 63 122 74 329 333 278 197 11 345 349 344 275 217 117 118 33 47 4 55 129 240
158 171 172 175 178 185 205 262 182 221 190 179 138 131 271 157 206 211 176 196 283 326 79 21 24 350 311 327 356 350 150 262 195 337 339 30 85 99 88 36 337 20 344
171 164 180 163 189 184 190 199 222 211 300 186 179 150 195 175 185 214 190 200 219 329 165 234 19 349 4 350 335 308 352 353 358 351 343 60 359 323 86 158 32 1 359